Location: Lourdes
(43.1000°N, 0.0500°W)
Time: 06:04:45
(UTC+00:00)

SL-16 R/B - Pass Details

Date: 30 November 2020
Orbit: 841 x 849 km, 71.0° (Epoch: 27 January)

Event Time Altitude Azimuth Distance (km) Brightness Sun altitude
Rises 18:48:19 0° 251° (WSW) 3,390 6.6 -25.3°
Reaches altitude 10° 18:51:33 10° 269° (W) 2,459 5.6 -25.9°
Maximum altitude 18:55:23 18° 313° (NW) 1,936 4.5 -26.6°
Drops below altitude 10° 18:59:14 10° 356° (N) 2,467 4.6 -27.3°
Enters shadow 19:00:02 - 2° (N) 2,672 4.7 -27.4°
